Regional Weather Roundup
Issued by NWS

Home | Current Version | Previous Version | Text Only | Print | Product List | Glossary On
Versions: 1 2 3 4 5 6 7 8 9 10 11 12 13 14 15 16 17 18 19 20 21 22 23 24 25 26 27 28 29 30 31 32 33 34 35 36 37 38 39 40 41 42 43 44 45 46 47 48 49 50
000
ASUS44 KMEG 280310
RWRTN
TENNESSEE HOURLY STATE WEATHER ROUNDUP
NATIONAL WEATHER SERVICE MEMPHIS TN
1000 PM CDT MON JUL 27 2015

TNZ002-004-019-021-049-052-054-088>092-280400-
WEST TENNESSEE

CITY           SKY/WX    TMP DP  RH WIND       PRES   REMARKS
MEMPHIS INTL   PTCLDY    88  76  67 CALM      29.96R HX  99
NWS MEMPHIS      N/A     81 N/A N/A MISG        N/A
JACKSON        CLEAR     81  78  91 CALM      29.97R
DYERSBURG        N/A    N/A N/A N/A MISG        N/A
PARIS          CLEAR     75  73  94 CALM      29.99R
LEXINGTON      CLEAR     79  77  94 CALM      29.97R
$$

TNZ008-025-027-028-033-062-065-066-280400-
NORTH MIDDLE TENNESSEE

CITY           SKY/WX    TMP DP  RH WIND       PRES   REMARKS
NASHVILLE      MOCLDY    84  74  71 N7        29.99R HX  91
CLARKSVILLE    CLOUDY    76  72  87 CALM      29.99R
SMYRNA         MOCLDY    83  77  82 CALM      29.99R HX  92
COOKEVILLE     CLEAR     77  75  94 CALM      30.01R
CROSSVILLE     PTCLDY    76  71  85 CALM      30.08R
$$

TNZ061-075-076-078-094-096-097-280400-
SOUTH MIDDLE TENNESSEE

CITY           SKY/WX    TMP DP  RH WIND       PRES   REMARKS
FAYETTEVILLE   CLEAR     81  68  65 CALM      30.01R
TULLAHOMA      CLEAR     79  73  83 CALM      30.03R
WINCHESTER     CLEAR     79  73  83 CALM      30.02R
MCMINNVILLE    CLEAR     79  79 100 CALM      30.02R
COLUMBIA       PTCLDY    82  82 100 CALM      29.98R HX  97
SHELBYVILLE    PTCLDY    79  77  94 CALM      30.01R
$$

TNZ017-018-042-046-047-280400-
NORTHEAST TENNESSEE

CITY           SKY/WX    TMP DP  RH WIND       PRES   REMARKS
TRI CITIES     MOCLDY    74  71  91 CALM      30.05R
ELIZABETHTON   PTCLDY    72  70  94 NE3       30.06S
$$

TNZ012-013-036-069-073-074-280400-
CENTRAL EAST TENNESSEE

CITY           SKY/WX    TMP DP  RH WIND       PRES   REMARKS
KNOXVILLE      MOCLDY    81  72  74 NE6       30.01R
OAK RIDGE      MOCLDY    79  72  79 VRB3      30.03R
GATLINBURG     PTCLDY    77  72  83 CALM      30.02R
MORRISTOWN     CLEAR     77  73  88 CALM      30.05R
$$

TNZ083-085-099-280400-
SOUTHEAST TENNESSEE

CITY           SKY/WX    TMP DP  RH WIND       PRES   REMARKS
CHATTANOOGA    MOCLDY    81  75  82 CALM      30.00R
$$

SKY/WX REPORTED AS FAIR MEANS FEW OR NO CLOUDS BELOW
12 THOUSAND FEET.



USA.gov is the U.S. government's official web portal to all federal, state and local government web resources and services.